Location: The Saddle
(36.8333°N, 80.3417°W)
Time: 07:00:51
(UTC-04:00)

Courier 1B - Pass Details

Date: 20 September 2024
Orbit: 962 x 1208 km, 28.3° (Epoch: 05 October)

Event Time Altitude Azimuth Distance (km) Brightness Sun altitude
Rises 15:36:55 0° 258° (WSW) 3,789 11.3 41.1°
Reaches altitude 10° 15:39:42 10° 252° (WSW) 2,872 11.0 40.7°
Maximum altitude 15:46:17 43° 183° (S) 1,513 9.6 39.6°
Drops below altitude 10° 15:53:15 10° 115° (ESE) 3,042 9.9 38.5°
Sets 15:56:17 0° 109° (ESE) 4,035 10.4 38.0°
